Content
SEND FEEDBACK

Daily
Averages
Monthly
Summary
United States of America

NEUSE, NORTH CAROLINA


Home > North America > United States > North Carolina
Elevation: 28 feet     Latitude: 35 54N     Longitude: 078 34W

WEATHER
 
SELECT A DAY
Number of Records: 196,857;   Date Range: 1/1/95 - 11/27/14
 
SHARE

PRINT THIS DATA

[ ← Previous Day ]
WEATHER ALMANAC - FEBRUARY 3, 2013
[ Next Day → ]
[ °C ]   °F
Weather ElementAverageHighLow
Temperature41.7 °F48 °F (1:51 pm)35.6 °F (4:51 am)
Dewpoint27.1 °F35.6 °F (1:12 am)21 °F (11:51 pm)
Humidity58.8 %87 % (4:51 am)40 % (6:51 pm)
Barometer29.94 in29.99 in (1:12 am)29.86 in (2:51 pm)
Wind Speed5.2 mph13.8 mph (2:51 pm)
Wind Gust19.6 mph (2:51 pm)
Weather ElementAverage
Visibility10 mi
Wind DirectionSSW (202.5 °)

Weather ElementTotal
Precipitation---
Heating Degree Days23.2 (Base 65)
Averaged from 24 records on February 3, 2013
WEATHER CONDITIONS BREAKOUT
WIND DIRECTION BREAKOUT
WEATHER BY HOUR - FEBRUARY 3, 2013
[ °C ]   °F
Local TimeTemperatureDewpointHumidityBarometerVisibilityWind DirectionWind SpeedGust SpeedPrecipitationEventsConditions
1:12 AM42.8 °F35.6 °F76 %29.99 in10.0 miWest (270°)4.6 mphMostly Cloudy
1:51 AM41.0 °F32.0 °F70 %29.98 in10.0 miWNW (290°)5.8 mphMostly Cloudy
2:51 AM39.9 °F32.0 °F73 %29.98 in10.0 miCalmScattered Clouds
3:51 AM37.0 °F30.9 °F79 %29.95 in10.0 miCalmPartly Cloudy
4:51 AM35.6 °F32.0 °F87 %29.93 in10.0 miCalmMostly Cloudy
5:51 AM36.0 °F32.0 °F86 %29.94 in10.0 miCalmMostly Cloudy
6:51 AM37.0 °F33.1 °F86 %29.93 in10.0 miCalmOvercast
7:51 AM37.0 °F33.1 °F86 %29.95 in10.0 miWest (260°)3.5 mphMostly Cloudy
8:51 AM39.2 °F33.8 °F81 %29.95 in10.0 miWSW (250°)4.6 mphScattered Clouds
9:51 AM43.0 °F28.0 °F56 %29.96 in10.0 miWNW (290°)8.1 mph16.1 mphScattered Clouds
10:51 AM44.1 °F24.1 °F45 %29.96 in10.0 miWNW (290°)6.9 mphMostly Cloudy
11:51 AM44.1 °F24.1 °F45 %29.93 in10.0 miWNW (300°)8.1 mphMostly Cloudy
12:51 PM45.0 °F24.1 °F44 %29.91 in10.0 miWest (270°)10.4 mph18.4 mphMostly Cloudy
1:51 PM48.0 °F25.0 °F41 %29.87 in10.0 miWNW (300°)6.9 mph18.4 mphMostly Cloudy
2:51 PM46.4 °F24.8 °F43 %29.86 in10.0 miWSW (240°)13.8 mph19.6 mphMostly Cloudy
3:51 PM46.9 °F25.0 °F42 %29.87 in10.0 miWSW (250°)6.9 mphOvercast
4:51 PM46.9 °F25.0 °F42 %29.87 in10.0 miWest (280°)8.1 mphMostly Cloudy
5:51 PM46.0 °F26.1 °F46 %29.90 in10.0 miNW (310°)4.6 mphMostly Cloudy
6:51 PM45.0 °F21.9 °F40 %29.93 in10.0 miNW (310°)5.8 mphScattered Clouds
7:51 PM43.0 °F21.9 °F43 %29.95 in10.0 miNW (320°)5.8 mphScattered Clouds
8:51 PM41.0 °F21.9 °F47 %29.96 in10.0 miNW (320°)6.9 mphScattered Clouds
9:51 PM39.9 °F21.9 °F49 %29.97 in10.0 miVariable5.8 mphClear
10:51 PM37.9 °F21.9 °F53 %29.99 in10.0 miCalmPartly Cloudy
11:51 PM37.9 °F21.0 °F51 %29.99 in10.0 miNW (310°)8.1 mphPartly Cloudy
Hourly data recorded from KRDU, located miles away from Neuse, North Carolina







STORIES FROM OUR PARTNERS